FW1921 Weather Reports


time (UTC)temp
F
wind
direction
speed
knots
gust
knots
rain 1hr
in
rain 24hr
in
rain mn
in
humidity
%
barometer
mb
20260503184532 57 226 5.2 8.7 0.00 0.00 0.00 40 1019.8
20260503184032 57 323 5.2 8.7 0.00 0.00 0.00 39 1019.9
20260503183530 56 19 2.6 7.8 0.00 0.00 0.00 43 1020.0
20260503183038 56 1 0.9 8.7 0.00 0.00 0.00 41 1020.0
20260503182529 56 309 3.5 11.3 0.00 0.00 0.00 43 1020.0
20260503182030 55 238 3.5 11.3 0.00 0.00 0.00 41 1020.0
20260503181549 55 321 3.5 11.3 0.00 0.00 0.00 43 1020.1
20260503181028 55 260 3.5 11.3 0.00 0.00 0.00 45 1020.2
20260503180530 55 19 0.9 7.8 0.00 0.00 0.00 41 1020.1
20260503180040 55 238 4.3 9.6 0.00 0.00 0.00 38 1020.3
20260503175531 55 268 2.6 9.6 0.00 0.00 0.00 41 1020.5
20260503175027 55 54 0.9 7.0 0.00 0.00 0.00 48 1020.4
20260503174525 53 286 2.6 7.8 0.00 0.00 0.00 44 1020.3
20260503174027 53 304 3.5 9.6 0.00 0.00 0.00 42 1020.4
20260503173524 54 337 2.6 11.3 0.00 0.00 0.00 45 1020.4
20260503173024 54 331 4.3 8.7 0.00 0.00 0.00 43 1020.3
20260503172522 54 321 0.9 5.2 0.00 0.00 0.00 50 1020.4
20260503172022 53 300 0.9 7.0 0.00 0.00 0.00 56 1020.4
20260503171525 53 215 1.7 7.0 0.00 0.00 0.00 44 1020.5
20260503171021 53 345 3.5 6.1 0.00 0.00 0.00 47 1020.4
20260503170522 53 286 1.7 6.1 0.00 0.00 0.00 49 1020.6
20260503150600 46 224 4.3 7.8 0.00 0.00 0.00 50 1022.2
20260503131035 41 326 7.0 13.9 0.00 0.00 0.00 56 1021.8
20260503130535 41 1 7.0 13.9 0.00 0.00 0.00 59 1021.8
20260503110503 37 334 1.7 5.2 0.00 0.00 0.00 66 1020.4
20260503081531 39 233 0.9 4.3 0.00 0.00 0.00 65 1017.9
20260503081033 39 256 2.6 5.2 0.00 0.00 0.00 65 1017.9
20260503080529 39 321 0.9 7.0 0.00 0.00 0.00 64 1017.7
20260503072524 40 278 3.5 7.0 0.00 0.00 0.00 61 1017.5
20260503072027 40 298 2.6 8.7 0.00 0.00 0.00 61 1017.4
20260503071522 40 332 4.3 8.7 0.00 0.00 0.00 61 1017.4
20260503071022 40 291 1.7 6.1 0.00 0.00 0.00 63 1017.3
20260503070525 40 317 2.6 5.2 0.00 0.00 0.00 64 1017.4
20260503055014 41 300 2.6 6.1 0.00 0.00 0.00 61 1017.5
20260503054518 42 319 1.7 6.1 0.00 0.00 0.00 61 1017.5
20260503054012 42 305 1.7 6.1 0.00 0.00 0.00 61 1017.5
20260503053512 42 1 1.7 6.1 0.00 0.00 0.00 61 1017.5
20260503053016 41 301 3.5 6.1 0.00 0.00 0.00 61 1017.5
20260503052511 41 300 3.5 6.1 0.00 0.00 0.00 61 1017.4
20260503052011 41 321 2.6 5.2 0.00 0.00 0.00 61 1017.4
20260503051510 41 331 1.7 5.2 0.00 0.00 0.00 61 1017.3
20260503051009 41 1 2.6 5.2 0.00 0.00 0.00 61 1017.3
20260503050509 41 341 2.6 4.3 0.00 0.00 0.00 61 1017.3
20260503050008 41 338 2.6 5.2 0.00 0.00 0.00 61 1017.3
20260503045513 42 11 1.7 6.1 0.00 0.00 0.00 60 1017.2
20260503045007 42 6 3.5 7.8 0.00 0.00 0.00 61 1017.2
20260503044507 42 344 3.5 7.8 0.00 0.00 0.00 60 1017.1
20260503044005 42 340 2.6 8.7 0.00 0.00 0.00 60 1017.2
20260503043504 42 329 3.5 8.7 0.00 0.00 0.00 60 1017.2
20260503043004 42 315 3.5 7.0 0.00 0.00 0.00 59 1017.1
20260503042502 42 319 1.7 5.2 0.00 0.00 0.00 59 1017.2
20260503042002 42 317 1.7 4.3 0.00 0.00 0.00 58 1017.1
20260503041502 42 329 2.6 5.2 0.00 0.00 0.00 58 1017.2
20260503041102 43 271 1.7 7.0 0.00 0.00 0.00 58 1017.2
20260503040559 43 325 3.5 7.0 0.00 0.00 0.00 58 1017.2
20260503040058 43 15 1.7 6.1 0.00 0.00 0.00 58 1017.2
20260503035602 43 313 2.6 7.0 0.00 0.00 0.00 57 1017.1
20260503035058 43 310 2.6 7.0 0.00 0.00 0.00 57 1017.2
20260503034557 43 308 2.6 5.2 0.00 0.00 0.00 57 1017.1
20260503034057 43 9 1.7 6.1 0.00 0.00 0.00 57 1017.2
20260503033103 43 315 4.3 7.8 0.00 0.00 0.00 57 1017.1
20260503032551 43 292 2.6 6.1 0.00 0.00 0.00 57 1017.1
20260503032048 43 261 1.7 4.3 0.00 0.00 0.00 56 1017.1
20260503031548 43 268 1.7 4.3 0.00 0.00 0.00 56 1017.0
20260503031048 43 321 1.7 4.3 0.00 0.00 0.00 56 1016.8
20260503030548 43 321 1.7 4.3 0.00 0.00 0.00 55 1016.9
20260503030050 43 1 0.9 4.3 0.00 0.00 0.00 56 1016.8
20260503025547 44 321 1.7 5.2 0.00 0.00 0.00 55 1016.8
20260503025047 44 306 1.7 5.2 0.00 0.00 0.00 55 1016.8
20260503024546 44 345 1.7 4.3 0.00 0.00 0.00 55 1016.8
20260503024046 44 305 1.7 4.3 0.00 0.00 0.00 54 1016.9
20260503023546 44 321 1.7 5.2 0.00 0.00 0.00 54 1016.9
20260503023051 44 252 1.7 5.2 0.00 0.00 0.00 54 1016.8
20260503022546 44 238 1.7 5.2 0.00 0.00 0.00 54 1016.9
20260503022046 44 320 1.7 4.3 0.00 0.00 0.00 54 1016.9
20260503021551 44 304 1.7 7.8 0.00 0.00 0.00 54 1016.9
20260503021046 44 339 2.6 7.8 0.00 0.00 0.00 54 1017.0
20260503020546 44 330 2.6 5.2 0.00 0.00 0.00 53 1017.0
20260503020054 45 282 0.9 3.5 0.00 0.00 0.00 53 1016.9
20260503015549 45 304 1.7 3.5 0.00 0.00 0.00 53 1017.0
20260503015044 45 307 0.0 5.2 0.00 0.00 0.00 53 1017.0
20260503014100 45 304 1.7 4.3 0.00 0.00 0.00 51 1016.8
20260503013600 45 309 0.9 6.1 0.00 0.00 0.00 52 1016.8
20260503013100 46 312 1.7 7.8 0.00 0.00 0.00 50 1016.8
20260503012602 45 311 1.7 7.8 0.00 0.00 0.00 51 1016.7
20260503012059 45 313 2.6 7.0 0.00 0.00 0.00 52 1016.5
20260503011608 46 264 3.5 7.0 0.00 0.00 0.00 52 1016.5
20260503011102 46 278 2.6 7.0 0.00 0.00 0.00 51 1016.4
20260503010600 46 292 2.6 7.0 0.00 0.00 0.00 50 1016.4
20260503010103 46 224 1.7 5.2 0.00 0.00 0.00 51 1016.4
20260503005600 47 301 1.7 4.3 0.00 0.00 0.00 51 1016.4
20260503005058 47 261 0.9 5.2 0.00 0.00 0.00 51 1016.2
20260503004602 47 248 1.7 7.0 0.00 0.00 0.00 51 1016.2
20260503004057 47 295 2.6 7.0 0.00 0.00 0.00 50 1016.1
20260503003557 47 314 0.9 6.1 0.00 0.00 0.00 51 1016.1
20260503003103 47 305 1.7 6.1 0.00 0.00 0.00 51 1016.0
20260503002557 48 333 0.9 5.2 0.00 0.00 0.00 50 1016.0
20260503002059 48 323 1.7 5.2 0.00 0.00 0.00 51 1015.8
20260503001604 48 301 1.7 7.0 0.00 0.00 0.00 49 1015.8
20260503001057 48 309 1.7 7.0 0.00 0.00 0.00 49 1015.8
20260503000557 48 340 2.6 7.8 0.00 0.00 0.00 48 1015.6
20260503000055 49 290 3.5 8.7 0.00 0.00 0.00 48 1015.7
20260502235555 49 293 1.7 8.7 0.00 0.00 0.00 49 1015.6
20260502235058 49 324 4.3 7.8 0.00 0.00 0.00 48 1015.4
20260502234557 49 252 2.6 7.8 0.00 0.00 0.00 47 1015.5
20260502234057 49 236 3.5 9.6 0.00 0.00 0.00 47 1015.4
20260502233555 50 345 2.6 10.4 0.00 0.00 0.00 47 1015.3
20260502233056 50 319 5.2 10.4 0.00 0.00 0.00 47 1015.1
20260502232555 50 216 4.3 10.4 0.00 0.00 0.00 46 1015.1
20260502232055 50 277 4.3 8.7 0.00 0.00 0.00 47 1014.9
20260502231558 51 274 4.3 9.6 0.00 0.00 0.00 45 1014.8
20260502231057 51 298 4.3 12.2 0.00 0.00 0.00 45 1014.8
20260502230554 52 326 4.3 8.7 0.00 0.00 0.00 46 1014.8
20260502230054 53 328 3.5 13.0 0.00 0.00 0.00 47 1014.8
20260502225553 53 282 4.3 13.0 0.00 0.00 0.00 45 1014.7
20260502225053 53 245 4.3 11.3 0.00 0.00 0.00 45 1014.5
20260502224556 53 314 6.1 11.3 0.00 0.00 0.00 44 1014.5
20260502224053 53 295 5.2 13.9 0.00 0.00 0.00 45 1014.4
20260502223553 53 330 6.1 13.9 0.00 0.00 0.00 45 1014.3
20260502223053 54 283 6.1 12.2 0.00 0.00 0.00 45 1014.3
20260502222553 54 328 5.2 12.2 0.00 0.00 0.00 46 1014.3
20260502222052 55 1 4.3 13.0 0.00 0.00 0.00 44 1014.4
20260502221552 55 272 3.5 13.0 0.00 0.00 0.00 45 1014.3
20260502221052 54 284 4.3 13.0 0.00 0.00 0.00 45 1014.3
20260502220555 54 305 4.3 13.0 0.00 0.00 0.00 46 1014.2
20260502220135 54 326 5.2 11.3 0.00 0.00 0.00 46 1014.3
20260502215553 54 290 3.5 10.4 0.00 0.00 0.00 46 1014.3
20260502215053 54 287 4.3 11.3 0.00 0.00 0.00 47 1014.2
20260502214552 54 254 4.3 11.3 0.00 0.00 0.00 46 1014.2
20260502214054 54 300 2.6 8.7 0.00 0.00 0.00 48 1014.0
20260502213551 54 307 3.5 10.4 0.00 0.00 0.00 46 1013.8
20260502213053 54 283 3.5 10.4 0.00 0.00 0.00 48 1013.8
20260502212551 54 301 5.2 12.2 0.00 0.00 0.00 45 1013.9
20260502212053 54 316 7.0 12.2 0.00 0.00 0.00 44 1013.8
20260502211551 54 337 5.2 13.0 0.00 0.00 0.00 46 1013.8
20260502211050 54 323 6.1 13.0 0.00 0.00 0.00 45 1013.8
20260502210550 55 311 6.1 10.4 0.00 0.00 0.00 45 1013.6
20260502210100 55 314 5.2 10.4 0.00 0.00 0.00 44 1013.5
20260502205549 55 1 5.2 10.4 0.00 0.00 0.00 45 1013.5
20260502205050 56 260 4.3 8.7 0.00 0.00 0.00 44 1013.5
20260502204601 56 319 3.5 8.7 0.00 0.00 0.00 47 1013.6
20260502204049 56 285 4.3 8.7 0.00 0.00 0.00 42 1013.5
20260502203549 56 263 4.3 8.7 0.00 0.00 0.00 43 1013.5
20260502203102 56 268 3.5 7.8 0.00 0.00 0.00 42 1013.3
20260502202549 56 314 3.5 7.0 0.00 0.00 0.00 44 1013.4
20260502202051 56 323 1.7 6.1 0.00 0.00 0.00 42 1013.4
20260502201549 55 337 3.5 6.1 0.00 0.00 0.00 42 1013.4
20260502201049 55 295 1.7 4.3 0.00 0.00 0.00 42 1013.4
20260502200549 56 271 1.7 7.0 0.00 0.00 0.00 42 1013.4
20260502200049 56 23 4.3 7.0 0.00 0.00 0.00 45 1013.2
20260502195547 56 330 1.7 4.3 0.00 0.00 0.00 47 1013.3
20260502195047 57 275 0.9 5.2 0.00 0.00 0.00 43 1013.3
20260502194553 58 311 2.6 5.2 0.00 0.00 0.00 45 1013.5
20260502194047 58 34 0.9 3.5 0.00 0.00 0.00 45 1013.3
20260502193547 58 172 0.9 4.3 0.00 0.00 0.00 47 1013.6
20260502193048 58 242 0.9 4.3 0.00 0.00 0.00 45 1013.6
20260502192550 58 242 0.9 4.3 0.00 0.00 0.00 45 1013.6
20260502192044 57 329 2.6 4.3 0.00 0.00 0.00 46 1013.6
20260502191544 57 326 0.9 7.8 0.00 0.00 0.00 46 1014.0
20260502191048 57 221 2.6 7.8 0.00 0.00 0.00 42 1014.0
20260502190544 57 327 0.9 8.7 0.00 0.00 0.00 41 1014.0
20260502190045 56 314 3.5 8.7 0.00 0.00 0.00 50 1014.0
20260502185541 56 29 1.7 6.1 0.00 0.00 0.00 47 1014.1
20260502185041 56 8 2.6 7.8 0.00 0.00 0.00 46 1014.1